[[{"header":{"parameterUnit":"m.s-1","parameterCategory":1,"la1":30.2991,"la2":30.254,"lo1":-89.0895,"lo2":-89.0444,"dy":0.0017,"dx":0.0017,"nx":28,"ny":28,"refTime":"2023-10-14T03:00:00:Z","depth":0,"parameterNumber":2,"parameterNumberName":"U-component_of_WINDS"},"data":[0,0,0,0,0,0,0,0,0,0,0,0,0,0,0,0,0,0,0,0,0,0,0,0,0,0,0,0,0,0,0,0,0,0,0,0,0,0,0,0,0,0,0,0,0,0,0,0,0,0,0,0,0,0,0,0,0,0,3.3719,3.3719,0,3.3722,3.3722,3.3722,3.3681,3.368,3.3679,3.3678,3.3682,3.3683,3.3684,0,0,0,0,0,0,0,0,0,0,0,0,0,3.3682,3.3682,3.3719,3.3719,3.3719,3.3722,3.3722,3.3722,3.3681,3.368,3.3678,3.3677,3.3682,3.3683,3.3684,0,0,0,0,0,0,0,0,0,0,0,0,0,3.3693,3.3683,3.3719,3.3699,3.3697,3.3722,3.3722,3.3722,3.3681,3.368,3.3678,3.3676,3.3681,3.3683,3.3685,3.3729,0,0,3.369,3.3691,0,0,0,0,0,0,0,0,3.3692,3.3694,3.3702,3.3701,3.3699,3.3699,3.371,3.3725,3.3682,3.3687,3.3677,3.3676,3.3689,3.369,3.3694,3.3729,3.373,3.369,3.3691,3.3692,3.3692,0,0,0,0,0,0,0,3.3691,3.3694,3.372,3.3702,3.37,3.3691,3.3691,3.3713,3.3698,3.3687,3.3684,3.3685,3.3688,3.3693,3.3694,3.373,3.369,3.3692,3.3693,3.3693,3.3806,3.3807,0,0,0,0,0,0,3.3693,3.3693,3.372,3.372,3.3691,3.3693,3.3693,3.3701,3.3697,3.3695,3.3686,3.3683,3.3691,3.3692,3.3694,3.3749,3.3692,3.3694,3.3695,3.3804,3.3806,3.3808,0,0,0,0,0,0,3.3692,3.3696,3.372,3.3706,3.3708,3.3696,3.3705,3.3702,3.3707,3.3697,3.3694,3.3694,3.3689,3.3692,3.3722,3.3749,3.3694,3.3696,3.3801,3.3804,3.3807,3.3858,0,0,0,0,0,0,3.3691,3.3696,3.3712,3.3707,3.3709,3.3747,3.3707,3.3703,3.371,3.3705,3.3703,3.3701,3.3688,3.3719,3.3723,3.375,3.3697,3.3799,3.3803,3.3806,3.3854,3.3863,3.387,0,0,0,0,0,3.369,3.3725,3.3713,3.3716,3.3729,3.3748,3.375,3.3734,3.3712,3.3729,3.3723,3.3702,3.3745,3.3723,3.3727,3.3755,3.3797,3.3802,3.3806,3.3851,3.3861,3.387,0,0,0,0,0,0,3.3733,3.3724,3.371,3.3744,3.3748,3.3741,3.3762,3.3744,3.3754,3.375,3.3729,3.3729,3.3763,3.3762,3.3737,3.38,3.3767,3.3773,3.38,3.381,3.3817,3.3818,3.3699,0,0,0,0,0,3.3747,3.3763,3.3754,3.3785,3.3788,3.3775,3.3782,3.377,3.3772,3.3773,3.377,3.3774,3.3788,3.3798,3.3811,3.3853,3.3854,3.3875,3.3882,3.3889,3.3895,3.392,3.393,3.3822,3.3822,3.3822,0,0,3.3775,3.3772,3.3783,3.3794,3.3795,3.3813,3.3776,3.3796,3.381,3.3776,3.3805,3.3803,3.3806,3.3843,3.3859,3.3843,3.3925,3.3894,3.39,3.3902,3.3926,3.3936,3.3945,3.3825,3.3825,3.3824,0,0,3.3837,3.3834,3.3862,3.3864,3.3866,3.3858,3.3865,3.3861,3.3859,3.3887,3.3864,3.388,3.3905,3.391,3.3915,3.3981,3.3963,3.3986,3.4028,3.4053,3.4062,3.4069,3.4096,3.4105,3.3991,3.3991,3.3991,0,3.3872,3.3897,3.3878,3.3901,3.3908,3.3879,3.3908,3.3911,3.3918,3.3924,3.3905,3.3938,3.3938,3.3977,3.3994,3.3998,3.4007,3.3987,3.4062,3.4069,3.4076,3.4101,3.4111,3.3994,3.3994,3.3994,3.3993,0,3.3942,3.3961,3.3983,3.3991,3.4,3.4026,3.4012,3.4024,3.4011,3.4005,3.4037,3.4036,3.4049,3.4057,3.4044,3.4096,3.4086,3.4065,3.4032,3.4089,3.4113,3.4122,3.3999,3.3997,3.3997,3.3996,0,0,3.4031,3.4029,3.4038,3.4043,3.4044,3.4059,3.4084,3.4098,3.411,3.4116,3.4139,3.4162,3.4143,3.4149,3.4136,3.4158,3.4215,3.4135,3.4134,3.4152,3.4276,3.4295,3.4306,3.4202,3.4204,3.4205,3.4277,0,3.4093,3.4137,3.4122,3.4167,3.4186,3.4159,3.4182,3.4186,3.4182,3.4198,3.4193,3.4211,3.4183,3.4187,3.4208,3.4204,3.424,3.4198,3.4226,3.4227,3.4229,3.4318,3.4336,3.4404,3.4286,3.4287,3.4288,0,3.4172,3.4182,3.4229,3.423,3.4238,3.4258,3.4271,3.4286,3.4292,3.4287,3.4296,3.4279,3.4307,3.4273,3.4312,3.4283,3.4294,3.4294,3.4296,3.43,3.4263,3.4327,3.4424,3.4436,3.4302,3.4301,3.43,0,3.4236,3.4261,3.4294,3.4298,3.4299,3.4315,3.4316,3.432,3.433,3.4341,3.4348,3.4362,3.4371,3.4383,3.4372,3.4348,3.4414,3.4378,3.4414,3.4414,3.443,3.443,3.4534,3.4433,3.4432,3.4432,3.4432,0,3.4309,3.434,3.4323,3.4344,3.4378,3.4361,3.4396,3.4394,3.4398,3.4419,3.4396,3.4416,3.4399,3.4418,3.441,3.4445,3.4448,3.4447,3.4445,3.4451,3.4452,3.4459,3.4456,3.4435,3.4434,3.4434,3.4433,0,3.4388,3.4377,3.4412,3.441,3.4411,3.4437,3.4436,3.4456,3.445,3.4477,3.4483,3.4474,3.4496,3.4486,3.4508,3.4502,3.4549,3.4539,3.4548,3.4546,3.4583,3.4581,3.4698,3.4714,3.46,3.4601,3.4602,0,3.4436,3.446,3.4461,3.4474,3.4477,3.4497,3.4508,3.4492,3.4504,3.4514,3.4533,3.4553,3.4568,3.4605,3.4601,3.4619,3.4611,3.4651,3.4614,3.462,3.4616,3.4616,3.462,3.466,3.4661,3.4662,3.4663,0,3.4525,3.4519,3.4535,3.4551,3.4565,3.4576,3.4585,3.4597,3.4582,3.4597,3.4619,3.4631,3.4655,3.4676,3.4693,3.4695,3.4678,3.4674,3.4684,3.4692,3.4697,3.4698,3.4572,3.4672,3.4671,3.4671,3.467,3.467,3.4592,3.4613,3.4619,3.4638,3.4644,3.4654,3.4673,3.4671,3.4689,3.4707,3.4697,3.4724,3.4731,3.4751,3.4756,3.4778,3.4763,3.4776,3.478,3.4784,3.4791,3.4691,3.4781,3.478,3.478,3.478,3.478,0,3.4683,3.4685,3.4703,3.4718,3.4734,3.4715,3.4725,3.4741,3.4765,3.4773,3.4789,3.4816,3.4837,3.4836,3.4855,3.4874,3.4866,3.488,3.488,3.4881,3.4802,3.4793,3.4885,3.4885,3.4885,3.4885,3.4885,3.4885,3.4732,3.4768,3.4763,3.4802,3.4804,3.4831,3.4839,3.4848,3.4855,3.4887,3.4904,3.4903,3.4908,3.4928,3.4948,3.4947,3.4957,3.4974,3.497,3.4897,3.4886,3.4876,3.4868,3.4975,3.4975,3.5049,3.5049,3.505]},{"header":{"parameterUnit":"m.s-1","parameterCategory":1,"la1":30.2991,"la2":30.254,"lo1":-89.0895,"lo2":-89.0444,"dy":0.0017,"dx":0.0017,"nx":28,"ny":28,"refTime":"2023-10-14T03:00:00:Z","depth":0,"parameterNumber":3,"parameterNumberName":"V-component_of_WINDS"},"data":[0,0,0,0,0,0,0,0,0,0,0,0,0,0,0,0,0,0,0,0,0,0,0,0,0,0,0,0,0,0,0,0,0,0,0,0,0,0,0,0,0,0,0,0,0,0,0,0,0,0,0,0,0,0,0,0,0,0,0.4879,0.488,0,0.5004,0.5005,0.5007,0.5066,0.5065,0.5065,0.5065,0.5193,0.5196,0.5199,0,0,0,0,0,0,0,0,0,0,0,0,0,0.4688,0.4691,0.4879,0.4881,0.4882,0.5004,0.5006,0.5007,0.5066,0.5065,0.5065,0.5065,0.5192,0.5196,0.52,0,0,0,0,0,0,0,0,0,0,0,0,0,0.4787,0.4692,0.4879,0.4926,0.4931,0.5004,0.5006,0.5008,0.5066,0.5065,0.5065,0.5065,0.519,0.5195,0.52,0.5235,0,0,0.5216,0.5218,0,0,0,0,0,0,0,0,0.4782,0.4794,0.4917,0.4923,0.4929,0.5019,0.4985,0.5084,0.5066,0.5015,0.5065,0.5065,0.5135,0.5145,0.5168,0.5241,0.5246,0.5217,0.522,0.5222,0.5224,0,0,0,0,0,0,0,0.4775,0.4789,0.4928,0.4919,0.4926,0.494,0.4954,0.5004,0.5074,0.5019,0.5024,0.5038,0.5138,0.5163,0.5172,0.5248,0.5217,0.5221,0.5224,0.5226,0.5352,0.5352,0,0,0,0,0,0,0.476,0.4783,0.4925,0.4932,0.4854,0.4943,0.4959,0.499,0.5074,0.5086,0.5038,0.504,0.5154,0.5166,0.5176,0.5221,0.5222,0.5227,0.523,0.5352,0.5352,0.5352,0,0,0,0,0,0,0.4756,0.4773,0.4919,0.4859,0.4879,0.4947,0.4981,0.4993,0.5018,0.5088,0.51,0.5051,0.5155,0.5169,0.5219,0.5226,0.5229,0.5234,0.5351,0.5352,0.5352,0.531,0,0,0,0,0,0,0.475,0.4771,0.4785,0.4859,0.4882,0.4961,0.4982,0.4995,0.5027,0.5031,0.5103,0.5115,0.5156,0.5211,0.5224,0.5233,0.5238,0.5351,0.5351,0.5352,0.5311,0.5309,0.5307,0,0,0,0,0,0.4743,0.4769,0.4786,0.4803,0.4902,0.4961,0.4974,0.5021,0.5027,0.5042,0.5086,0.5113,0.5223,0.5216,0.5231,0.5242,0.5351,0.5351,0.5352,0.5312,0.5309,0.5307,0,0,0,0,0,0,0.4695,0.478,0.4799,0.485,0.4898,0.4971,0.4991,0.5017,0.5064,0.5066,0.5122,0.5137,0.5182,0.5217,0.5208,0.5278,0.5289,0.5293,0.5254,0.5252,0.5249,0.524,0.5242,0,0,0,0,0,0.469,0.4732,0.4804,0.4841,0.4864,0.4923,0.4951,0.4982,0.5034,0.5055,0.5103,0.5152,0.5197,0.5226,0.5272,0.5316,0.5331,0.533,0.5328,0.5326,0.5329,0.5352,0.5352,0.5354,0.5354,0.5354,0,0,0.4681,0.4733,0.4756,0.4833,0.4874,0.4915,0.494,0.4983,0.5014,0.5062,0.5112,0.5148,0.5206,0.5252,0.5275,0.5283,0.5331,0.5327,0.5325,0.5328,0.5352,0.5352,0.5352,0.5354,0.5354,0.5354,0,0,0.4685,0.4729,0.4764,0.4804,0.4865,0.4903,0.4911,0.498,0.5006,0.5057,0.5093,0.5129,0.5207,0.5246,0.5276,0.5291,0.5316,0.5304,0.5293,0.5315,0.5315,0.5315,0.5319,0.532,0.5306,0.5306,0.5306,0,0.4666,0.473,0.4779,0.4819,0.4851,0.4895,0.4929,0.4966,0.5039,0.5059,0.5066,0.5163,0.5205,0.526,0.5263,0.5286,0.5296,0.5297,0.5311,0.5312,0.5313,0.5317,0.5318,0.5304,0.5304,0.5304,0.5305,0,0.4702,0.4746,0.4767,0.4835,0.4869,0.4906,0.4959,0.4987,0.5015,0.5052,0.5101,0.5153,0.5209,0.5224,0.5252,0.5282,0.5284,0.5301,0.5313,0.531,0.5314,0.5316,0.5301,0.5302,0.5303,0.5303,0,0,0.4682,0.4775,0.4781,0.4812,0.4881,0.4915,0.4952,0.5007,0.5029,0.5077,0.5109,0.5172,0.5186,0.522,0.5252,0.5272,0.5277,0.5285,0.5287,0.5281,0.5311,0.5298,0.53,0.5294,0.5295,0.5295,0.5306,0,0.4695,0.4766,0.4809,0.4862,0.4901,0.4942,0.4974,0.5019,0.5054,0.5092,0.513,0.5173,0.519,0.521,0.5231,0.5272,0.5284,0.5272,0.5324,0.5325,0.5308,0.5302,0.529,0.5298,0.5308,0.5309,0.5309,0,0.4721,0.4766,0.4823,0.4884,0.4903,0.4931,0.4983,0.5019,0.5069,0.5093,0.5129,0.5161,0.52,0.5209,0.5263,0.5254,0.5277,0.53,0.5302,0.5308,0.5317,0.5308,0.5302,0.5302,0.5313,0.5312,0.5312,0,0.4699,0.4774,0.4817,0.4842,0.4916,0.4934,0.4966,0.5016,0.5045,0.509,0.5108,0.5157,0.5183,0.5219,0.5263,0.5265,0.5312,0.5325,0.5332,0.533,0.5341,0.5339,0.5337,0.5356,0.5356,0.5356,0.5356,0,0.4709,0.4741,0.4808,0.4834,0.4871,0.4919,0.4953,0.4988,0.5032,0.5065,0.5103,0.5132,0.5187,0.5223,0.5257,0.5296,0.5308,0.5327,0.5336,0.5324,0.5321,0.534,0.534,0.5356,0.5356,0.5356,0.5356,0,0.4691,0.4737,0.4786,0.4851,0.4867,0.4891,0.4946,0.4972,0.5008,0.5048,0.5061,0.5116,0.516,0.5206,0.5266,0.5289,0.5326,0.5338,0.5309,0.5313,0.5318,0.5316,0.5327,0.533,0.5347,0.5347,0.5346,0,0.4694,0.472,0.4787,0.4811,0.4841,0.488,0.4909,0.4956,0.4985,0.5042,0.5061,0.5107,0.5147,0.5215,0.526,0.5305,0.5318,0.5319,0.5326,0.5312,0.5317,0.5315,0.5317,0.5317,0.5316,0.5316,0.5316,0,0.4695,0.4715,0.4756,0.4803,0.4837,0.4876,0.4918,0.4935,0.499,0.5019,0.5064,0.5095,0.5154,0.5199,0.5249,0.5281,0.5307,0.5313,0.5317,0.5305,0.5286,0.5295,0.5302,0.5313,0.5313,0.5313,0.5314,0.5314,0.4688,0.4711,0.4761,0.4804,0.4839,0.4876,0.4903,0.4941,0.4979,0.5031,0.5056,0.51,0.5148,0.5217,0.5247,0.5282,0.529,0.5296,0.5297,0.5298,0.5294,0.528,0.5291,0.5291,0.5291,0.5291,0.5292,0,0.4689,0.4722,0.4761,0.4817,0.485,0.487,0.4916,0.4942,0.4981,0.5022,0.506,0.511,0.5153,0.52,0.5245,0.5263,0.5276,0.5274,0.5273,0.5279,0.5285,0.5277,0.5262,0.5262,0.5262,0.5262,0.5262,0.5262,0.4694,0.4734,0.476,0.4818,0.4851,0.4894,0.4918,0.4951,0.4984,0.5038,0.5074,0.5104,0.5148,0.5196,0.5235,0.5248,0.5263,0.5256,0.5272,0.5277,0.5279,0.5281,0.5274,0.5259,0.5259,0.5264,0.5264,0.5264]}]]